Flag for Germany Weather past 2 weeks in Soest, North Rhine-Westphalia, Germany

Now
37 °F

Fog.


Feels Like: 29 °F
Forecast: 35 / 40 °F
Wind: 14 mph from Southwest

Location: Dortmund / Wickede

Current Time: Jan 26, 2015 at 1:59:33 PM

Latest Report: Jan 26, 2015 at 1:20 PM


Visibility: 3 mi

Pressure: 30.04 "Hg

Humidity: 93%

Dew point: 36 °F

Location of SoestLocation

Historic Weather in Soest — Graph

°F

Soest temperature yesterday

Maximum temperature yesterday: 37 °F (at 2:20 PM)
Minimum temperature yesterday: 32 °F (at 5:20 AM)
Average temperature yesterday: 35 °F

Past Weeks' High & Low Weather Summary

 TemperatureHumidityPressure
High52 °F (Jan 13, 12:20 PM)93% (Jan 17, 7:20 AM)30.39 "Hg (Jan 17, 7:20 AM)
Low27 °F (Jan 21, 8:20 AM)58% (Jan 13, 12:20 PM)29.42 "Hg (Jan 15, 4:20 PM)
Average37 °F79%29.93 "Hg
* Reported Jan 11 12:20 PM — Jan 26 12:50 PM, Soest, Weather by CustomWeather, © 2014

Note: Actual official high and low records may vary slightly from our data, if they occured in-between our weather recording intervals... More about our weather records

Advertising

Soest weather history for previous 24 hours

 ConditionsComfort  
Time TempWeatherWind HumidityBarometerVisibility
12:50 PM
Jan 26
37 °FBroken clouds.15 mph87%30.07 "HgN/A
12:20 PM37 °FLight rain. Broken clouds.13 mph87%30.07 "HgN/A
11:50 AM37 °FPartly sunny.13 mph87%30.09 "Hg6 mi
11:20 AM37 °FSprinkles. Partly sunny.15 mph87%30.09 "Hg6 mi
10:50 AM37 °FBroken clouds.14 mph87%30.12 "Hg6 mi
10:20 AM37 °FBroken clouds.14 mph87%30.12 "HgN/A
9:50 AM36 °FPartly sunny.15 mph93%30.12 "Hg6 mi
9:20 AM36 °FSprinkles. Partly sunny.13 mph93%30.12 "Hg4 mi
8:50 AM36 °FSprinkles. Partly sunny.13 mph93%30.15 "Hg4 mi
8:20 AM36 °FSprinkles. Low clouds.13 mph93%30.15 "Hg4 mi
7:50 AM36 °FOvercast.12 mph93%30.15 "Hg5 mi
7:20 AM36 °FOvercast.10 mph93%30.18 "HgN/A
6:50 AM36 °FOvercast.12 mph93%30.18 "HgN/A
6:20 AM36 °FPassing clouds.12 mph93%30.18 "HgN/A
5:50 AM36 °FPassing clouds.12 mph93%30.18 "HgN/A
5:20 AM36 °FPassing clouds.12 mph93%30.21 "HgN/A
10:50 PM
Jan 25
36 °FFog.8 mph93%30.33 "Hg2 mi
10:20 PM36 °FFog.10 mph93%30.33 "Hg2 mi
9:50 PM36 °FLight rain. Fog.9 mph93%30.33 "Hg2 mi
9:20 PM36 °FLight rain. Fog.9 mph93%30.33 "Hg2 mi
8:50 PM36 °FLight rain. Fog.10 mph93%30.33 "Hg2 mi
8:20 PM36 °FFog.9 mph93%30.33 "Hg2 mi
7:50 PM36 °FLight rain. Fog.9 mph93%30.33 "Hg2 mi
7:20 PM36 °FPassing clouds.10 mph93%30.36 "HgN/A
6:50 PM36 °FLight rain. Fog.9 mph93%30.36 "Hg2 mi
6:20 PM36 °FLight rain. Fog.9 mph93%30.36 "Hg2 mi
5:50 PM36 °FRain. Fog.8 mph93%30.36 "Hg2 mi
5:20 PM36 °FLight rain. Fog.8 mph93%30.36 "Hg2 mi
4:50 PM36 °FLight rain. Fog.6 mph93%30.36 "Hg2 mi
4:20 PM36 °FLight rain. Fog.8 mph93%30.36 "Hg2 mi
3:50 PM36 °FLight rain. Fog.9 mph93%30.36 "Hg2 mi
3:20 PM36 °FFog.9 mph93%30.33 "Hg2 mi
2:50 PM37 °FPartly sunny.9 mph87%30.33 "Hg4 mi
2:20 PM37 °FBroken clouds.9 mph87%30.33 "Hg4 mi
1:50 PM36 °FBroken clouds.8 mph93%30.36 "Hg4 mi
1:20 PM36 °FBroken clouds.7 mph93%30.36 "Hg4 mi
Weather by CustomWeather, © 2014

See weather overviewHow to use our weather pages